Terminal Aerodrome Forecast
Issued by NWS

Home | Current Version | Previous Version | Text Only | Print | Product List | Glossary On
Versions: 1 2 3 4 5 6 7 8 9 10 11 12 13 14 15 16 17 18 19 20
000
FTUS41 KPBZ 221100
TAFLBE
TAF
KLBE 221140Z 2212/2312 30008KT P6SM SCT015 OVC030
     FM221500 29010G16KT P6SM BKN030
     FM221700 29008G16KT P6SM BKN035
     FM230300 00000KT P6SM SKC=

USA.gov is the U.S. government's official web portal to all federal, state and local government web resources and services.